Location: Bachas
(43.2439°N, 0.9375°E)
Time: 16:00:44
(UTC+00:00)

STARLINK-1076 - Pass Details

Date: 18 February 2020
Orbit: 375 x 384 km, 53.0° (Epoch: 30 March)

Event Time Altitude Azimuth Distance (km) Brightness Sun altitude
Exits shadow 04:16:13 14° 100° (E) 1,212 6.1 -28.7°
Drops below altitude 10° 04:17:01 10° 87° (E) 1,416 6.6 -28.6°
Enters shadow 05:14:26 -67° 235° (SW) 12,130 10.4 -18.2°
Maximum altitude 05:50:26 53° 328° (NNW) 484 3.1 -11.6°
